Time,TemperatureF,DewpointF,PressureIn,WindDirection,WindDirectionDegrees,WindSpeedMPH,WindSpeedGustMPH,Humidity,HourlyPrecipIn,Conditions,Clouds,dailyrainin,SoftwareType,DateUTC
2013-01-11 00:00:00,40.0,31.0,-100.00,WNW,285,6.0,-999.0,69,0.00,,,-99.99,,2013-01-11 08:00:00,
2013-01-11 00:22:00,40.0,31.0,-100.00,WNW,285,6.0,-999.0,69,0.00,,,-99.99,,2013-01-11 08:22:00,
2013-01-11 00:32:00,40.0,31.0,-100.00,WNW,285,6.0,-999.0,69,0.00,,,-99.99,,2013-01-11 08:32:00,
2013-01-11 00:42:00,40.0,31.0,-100.00,WNW,285,6.0,-999.0,69,0.00,,,-99.99,,2013-01-11 08:42:00,
2013-01-11 00:52:00,40.0,31.0,-100.00,WNW,285,6.0,-999.0,69,0.00,,,-99.99,,2013-01-11 08:52:00,
2013-01-11 01:00:00,40.0,29.0,-100.00,North,350,4.0,-999.0,65,0.00,,,-99.99,,2013-01-11 09:00:00,
2013-01-11 01:23:00,40.0,29.0,-100.00,North,350,4.0,-999.0,65,0.00,,,-99.99,,2013-01-11 09:23:00,
2013-01-11 01:32:00,40.0,29.0,-100.00,North,350,4.0,-999.0,65,0.00,,,-99.99,,2013-01-11 09:32:00,
2013-01-11 01:42:00,40.0,29.0,-100.00,North,350,4.0,-999.0,65,0.00,,,-99.99,,2013-01-11 09:42:00,
2013-01-11 01:52:00,40.0,29.0,-100.00,North,350,4.0,-999.0,65,0.00,,,-99.99,,2013-01-11 09:52:00,
2013-01-11 02:00:00,40.0,30.0,-100.00,West,263,4.0,-999.0,65,0.00,,,-99.99,,2013-01-11 10:00:00,
2013-01-11 02:22:00,40.0,30.0,-100.00,West,263,4.0,-999.0,65,0.00,,,-99.99,,2013-01-11 10:22:00,
2013-01-11 02:32:00,40.0,30.0,-100.00,West,263,4.0,-999.0,65,0.00,,,-99.99,,2013-01-11 10:32:00,
2013-01-11 02:42:00,40.0,30.0,-100.00,West,263,4.0,-999.0,65,0.00,,,-99.99,,2013-01-11 10:42:00,
2013-01-11 02:52:00,40.0,30.0,-100.00,West,263,4.0,-999.0,65,0.00,,,-99.99,,2013-01-11 10:52:00,
2013-01-11 03:00:00,40.0,30.0,-100.00,NW,323,5.0,-999.0,65,0.00,,,-99.99,,2013-01-11 11:00:00,
2013-01-11 03:23:00,40.0,30.0,-100.00,NW,323,5.0,-999.0,65,0.00,,,-99.99,,2013-01-11 11:23:00,
2013-01-11 03:33:00,40.0,30.0,-100.00,NW,323,5.0,-999.0,65,0.00,,,-99.99,,2013-01-11 11:33:00,
2013-01-11 03:43:00,40.0,30.0,-100.00,NW,323,5.0,-999.0,65,0.00,,,-99.99,,2013-01-11 11:43:00,
2013-01-11 03:53:00,40.0,30.0,-100.00,NW,323,5.0,-999.0,65,0.00,,,-99.99,,2013-01-11 11:53:00,
2013-01-11 04:00:00,42.0,28.0,-100.00,WNW,303,13.0,-999.0,56,0.00,,,-99.99,,2013-01-11 12:00:00,
2013-01-11 04:23:00,42.0,28.0,-100.00,WNW,303,13.0,-999.0,56,0.00,,,-99.99,,2013-01-11 12:23:00,
2013-01-11 04:33:00,42.0,28.0,-100.00,WNW,303,13.0,-999.0,56,0.00,,,-99.99,,2013-01-11 12:33:00,
2013-01-11 04:43:00,42.0,28.0,-100.00,WNW,303,13.0,-999.0,56,0.00,,,-99.99,,2013-01-11 12:43:00,
2013-01-11 04:53:00,42.0,28.0,-100.00,WNW,303,13.0,-999.0,56,0.00,,,-99.99,,2013-01-11 12:53:00,
2013-01-11 05:00:00,40.0,30.0,-100.00,West,266,6.0,-999.0,67,0.00,,,-99.99,,2013-01-11 13:00:00,
2013-01-11 05:23:00,40.0,30.0,-100.00,West,266,6.0,-999.0,67,0.00,,,-99.99,,2013-01-11 13:23:00,
2013-01-11 05:33:00,40.0,30.0,-100.00,West,266,6.0,-999.0,67,0.00,,,-99.99,,2013-01-11 13:33:00,
2013-01-11 05:43:00,40.0,30.0,-100.00,West,266,6.0,-999.0,67,0.00,,,-99.99,,2013-01-11 13:43:00,
2013-01-11 05:53:00,40.0,30.0,-100.00,West,266,6.0,-999.0,67,0.00,,,-99.99,,2013-01-11 13:53:00,
2013-01-11 06:00:00,40.0,29.0,-100.00,WNW,303,10.0,-999.0,63,0.00,,,-99.99,,2013-01-11 14:00:00,
2013-01-11 06:23:00,40.0,29.0,-100.00,WNW,303,10.0,-999.0,63,0.00,,,-99.99,,2013-01-11 14:23:00,
2013-01-11 06:33:00,40.0,29.0,-100.00,WNW,303,10.0,-999.0,63,0.00,,,-99.99,,2013-01-11 14:33:00,
2013-01-11 06:43:00,40.0,29.0,-100.00,WNW,303,10.0,-999.0,63,0.00,,,-99.99,,2013-01-11 14:43:00,
2013-01-11 06:53:00,40.0,29.0,-100.00,WNW,303,10.0,-999.0,63,0.00,,,-99.99,,2013-01-11 14:53:00,
2013-01-11 07:00:00,40.0,30.0,-100.00,WNW,296,9.0,-999.0,65,0.00,,,-99.99,,2013-01-11 15:00:00,
2013-01-11 07:23:00,40.0,30.0,-100.00,WNW,296,9.0,-999.0,65,0.00,,,-99.99,,2013-01-11 15:23:00,
2013-01-11 07:33:00,40.0,30.0,-100.00,WNW,296,9.0,-999.0,65,0.00,,,-99.99,,2013-01-11 15:33:00,
2013-01-11 07:43:00,40.0,30.0,-100.00,WNW,296,9.0,-999.0,65,0.00,,,-99.99,,2013-01-11 15:43:00,
2013-01-11 07:53:00,40.0,30.0,-100.00,WNW,296,9.0,-999.0,65,0.00,,,-99.99,,2013-01-11 15:53:00,
2013-01-11 08:00:00,40.0,30.0,-100.00,NW,320,7.0,-999.0,68,0.00,,,-99.99,,2013-01-11 16:00:00,
2013-01-11 08:23:00,40.0,30.0,-100.00,NW,320,7.0,-999.0,68,0.00,,,-99.99,,2013-01-11 16:23:00,
2013-01-11 08:33:00,40.0,30.0,-100.00,NW,320,7.0,-999.0,68,0.00,,,-99.99,,2013-01-11 16:33:00,
2013-01-11 08:43:00,40.0,30.0,-100.00,NW,320,7.0,-999.0,68,0.00,,,-99.99,,2013-01-11 16:43:00,
2013-01-11 08:53:00,40.0,30.0,-100.00,NW,320,7.0,-999.0,68,0.00,,,-99.99,,2013-01-11 16:53:00,
2013-01-11 09:00:00,38.0,30.0,-100.00,NNW,338,1.0,-999.0,71,0.00,,,-99.99,,2013-01-11 17:00:00,
2013-01-11 09:22:00,38.0,30.0,-100.00,NNW,338,1.0,-999.0,71,0.00,,,-99.99,,2013-01-11 17:22:00,
2013-01-11 09:33:00,38.0,30.0,-100.00,NNW,338,1.0,-999.0,71,0.00,,,-99.99,,2013-01-11 17:33:00,
2013-01-11 09:43:00,38.0,30.0,-100.00,NNW,338,1.0,-999.0,71,0.00,,,-99.99,,2013-01-11 17:43:00,
2013-01-11 09:53:00,38.0,30.0,-100.00,NNW,338,1.0,-999.0,71,0.00,,,-99.99,,2013-01-11 17:53:00,
2013-01-11 10:00:00,41.0,32.0,-100.00,WNW,289,8.0,-999.0,68,0.00,,,-99.99,,2013-01-11 18:00:00,
2013-01-11 10:24:00,41.0,32.0,-100.00,WNW,289,8.0,-999.0,68,0.00,,,-99.99,,2013-01-11 18:24:00,
2013-01-11 10:33:00,41.0,32.0,-100.00,WNW,289,8.0,-999.0,68,0.00,,,-99.99,,2013-01-11 18:33:00,
2013-01-11 10:43:00,41.0,32.0,-100.00,WNW,289,8.0,-999.0,68,0.00,,,-99.99,,2013-01-11 18:43:00,
2013-01-11 10:53:00,41.0,32.0,-100.00,WNW,289,8.0,-999.0,68,0.00,,,-99.99,,2013-01-11 18:53:00,
2013-01-11 11:00:00,43.0,32.0,-100.00,WNW,298,6.0,-999.0,64,0.00,,,-99.99,,2013-01-11 19:00:00,
2013-01-11 11:23:00,43.0,32.0,-100.00,WNW,298,6.0,-999.0,64,0.00,,,-99.99,,2013-01-11 19:23:00,
2013-01-11 11:33:00,43.0,32.0,-100.00,WNW,298,6.0,-999.0,64,0.00,,,-99.99,,2013-01-11 19:33:00,
2013-01-11 11:43:00,43.0,32.0,-100.00,WNW,298,6.0,-999.0,64,0.00,,,-99.99,,2013-01-11 19:43:00,
2013-01-11 11:53:00,43.0,32.0,-100.00,WNW,298,6.0,-999.0,64,0.00,,,-99.99,,2013-01-11 19:53:00,
2013-01-11 12:00:00,45.0,33.0,-100.00,West,265,3.0,-999.0,60,0.00,,,-99.99,,2013-01-11 20:00:00,
2013-01-11 12:23:00,45.0,33.0,-100.00,West,265,3.0,-999.0,60,0.00,,,-99.99,,2013-01-11 20:23:00,
2013-01-11 12:33:00,45.0,33.0,-100.00,West,265,3.0,-999.0,60,0.00,,,-99.99,,2013-01-11 20:33:00,
2013-01-11 12:43:00,45.0,33.0,-100.00,West,265,3.0,-999.0,60,0.00,,,-99.99,,2013-01-11 20:43:00,
2013-01-11 12:53:00,45.0,33.0,-100.00,West,265,3.0,-999.0,60,0.00,,,-99.99,,2013-01-11 20:53:00,
2013-01-11 13:00:00,48.0,35.0,-100.00,WSW,254,8.0,-999.0,61,0.00,,,-99.99,,2013-01-11 21:00:00,
2013-01-11 13:23:00,48.0,35.0,-100.00,WSW,254,8.0,-999.0,61,0.00,,,-99.99,,2013-01-11 21:23:00,
2013-01-11 13:33:00,48.0,35.0,-100.00,WSW,254,8.0,-999.0,61,0.00,,,-99.99,,2013-01-11 21:33:00,
2013-01-11 13:43:00,48.0,35.0,-100.00,WSW,254,8.0,-999.0,61,0.00,,,-99.99,,2013-01-11 21:43:00,
2013-01-11 13:53:00,48.0,35.0,-100.00,WSW,254,8.0,-999.0,61,0.00,,,-99.99,,2013-01-11 21:53:00,
2013-01-11 14:00:00,49.0,37.0,-100.00,WSW,246,9.0,-999.0,64,0.00,,,-99.99,,2013-01-11 22:00:00,
2013-01-11 14:23:00,49.0,37.0,-100.00,WSW,246,9.0,-999.0,64,0.00,,,-99.99,,2013-01-11 22:23:00,
2013-01-11 14:33:00,49.0,37.0,-100.00,WSW,246,9.0,-999.0,64,0.00,,,-99.99,,2013-01-11 22:33:00,
2013-01-11 14:42:00,49.0,37.0,-100.00,WSW,246,9.0,-999.0,64,0.00,,,-99.99,,2013-01-11 22:42:00,
2013-01-11 14:53:00,49.0,37.0,-100.00,WSW,246,9.0,-999.0,64,0.00,,,-99.99,,2013-01-11 22:53:00,
2013-01-11 15:00:00,49.0,39.0,-100.00,West,269,11.0,-999.0,67,0.00,,,-99.99,,2013-01-11 23:00:00,
2013-01-11 15:23:00,49.0,39.0,-100.00,West,269,11.0,-999.0,67,0.00,,,-99.99,,2013-01-11 23:23:00,
2013-01-11 15:33:00,49.0,39.0,-100.00,West,269,11.0,-999.0,67,0.00,,,-99.99,,2013-01-11 23:33:00,
2013-01-11 15:43:00,49.0,39.0,-100.00,West,269,11.0,-999.0,67,0.00,,,-99.99,,2013-01-11 23:43:00,
2013-01-11 15:53:00,49.0,39.0,-100.00,West,269,11.0,-999.0,67,0.00,,,-99.99,,2013-01-11 23:53:00,
2013-01-11 16:00:00,48.0,40.0,-100.00,West,270,17.0,-999.0,72,0.00,,,-99.99,,2013-01-12 00:00:00,
2013-01-11 16:23:00,48.0,40.0,-100.00,West,270,17.0,-999.0,72,0.00,,,-99.99,,2013-01-12 00:23:00,
2013-01-11 16:33:00,48.0,40.0,-100.00,West,270,17.0,-999.0,72,0.00,,,-99.99,,2013-01-12 00:33:00,
2013-01-11 16:43:00,48.0,40.0,-100.00,West,270,17.0,-999.0,72,0.00,,,-99.99,,2013-01-12 00:43:00,
2013-01-11 16:53:00,48.0,40.0,-100.00,West,270,17.0,-999.0,72,0.00,,,-99.99,,2013-01-12 00:53:00,
2013-01-11 17:00:00,47.0,40.0,-100.00,WSW,247,9.0,-999.0,77,0.00,,,-99.99,,2013-01-12 01:00:00,
2013-01-11 17:22:00,47.0,40.0,-100.00,WSW,247,9.0,-999.0,77,0.00,,,-99.99,,2013-01-12 01:22:00,
2013-01-11 17:33:00,47.0,40.0,-100.00,WSW,247,9.0,-999.0,77,0.00,,,-99.99,,2013-01-12 01:33:00,
2013-01-11 17:43:00,47.0,40.0,-100.00,WSW,247,9.0,-999.0,77,0.00,,,-99.99,,2013-01-12 01:43:00,
2013-01-11 17:52:00,47.0,40.0,-100.00,WSW,247,9.0,-999.0,77,0.00,,,-99.99,,2013-01-12 01:52:00,
2013-01-11 18:00:00,44.0,40.0,-100.00,WNW,285,7.0,-999.0,84,0.00,,,-99.99,,2013-01-12 02:00:00,
2013-01-11 18:22:00,44.0,40.0,-100.00,WNW,285,7.0,-999.0,84,0.00,,,-99.99,,2013-01-12 02:22:00,
2013-01-11 18:33:00,44.0,40.0,-100.00,WNW,285,7.0,-999.0,84,0.00,,,-99.99,,2013-01-12 02:33:00,
2013-01-11 18:43:00,44.0,40.0,-100.00,WNW,285,7.0,-999.0,84,0.00,,,-99.99,,2013-01-12 02:43:00,
2013-01-11 18:53:00,44.0,40.0,-100.00,WNW,285,7.0,-999.0,84,0.00,,,-99.99,,2013-01-12 02:53:00,
2013-01-11 19:00:00,43.0,39.0,-100.00,NW,322,5.0,-999.0,85,0.00,,,-99.99,,2013-01-12 03:00:00,
2013-01-11 19:22:00,43.0,39.0,-100.00,NW,322,5.0,-999.0,85,0.00,,,-99.99,,2013-01-12 03:22:00,
2013-01-11 19:33:00,43.0,39.0,-100.00,NW,322,5.0,-999.0,85,0.00,,,-99.99,,2013-01-12 03:33:00,
2013-01-11 19:43:00,43.0,39.0,-100.00,NW,322,5.0,-999.0,85,0.00,,,-99.99,,2013-01-12 03:43:00,
2013-01-11 19:53:00,43.0,39.0,-100.00,NW,322,5.0,-999.0,85,0.00,,,-99.99,,2013-01-12 03:53:00,
2013-01-11 20:00:00,44.0,36.0,-100.00,NNW,345,5.0,-999.0,74,0.00,,,-99.99,,2013-01-12 04:00:00,
2013-01-11 20:22:00,44.0,36.0,-100.00,NNW,345,5.0,-999.0,74,0.00,,,-99.99,,2013-01-12 04:22:00,
2013-01-11 20:32:00,44.0,36.0,-100.00,NNW,345,5.0,-999.0,74,0.00,,,-99.99,,2013-01-12 04:32:00,
2013-01-11 20:42:00,44.0,36.0,-100.00,NNW,345,5.0,-999.0,74,0.00,,,-99.99,,2013-01-12 04:42:00,
2013-01-11 20:52:00,44.0,36.0,-100.00,NNW,345,5.0,-999.0,74,0.00,,,-99.99,,2013-01-12 04:52:00,
2013-01-11 21:00:00,43.0,35.0,-100.00,North,354,8.0,-999.0,73,0.00,,,-99.99,,2013-01-12 05:00:00,
2013-01-11 21:22:00,43.0,35.0,-100.00,North,354,8.0,-999.0,73,0.00,,,-99.99,,2013-01-12 05:22:00,
2013-01-11 21:32:00,43.0,35.0,-100.00,North,354,8.0,-999.0,73,0.00,,,-99.99,,2013-01-12 05:32:00,
2013-01-11 21:42:00,43.0,35.0,-100.00,North,354,8.0,-999.0,73,0.00,,,-99.99,,2013-01-12 05:42:00,
2013-01-11 21:52:00,43.0,35.0,-100.00,North,354,8.0,-999.0,73,0.00,,,-99.99,,2013-01-12 05:52:00,
2013-01-11 22:00:00,40.0,34.0,-100.00,North,352,9.0,-999.0,79,0.00,,,-99.99,,2013-01-12 06:00:00,
2013-01-11 22:22:00,40.0,34.0,-100.00,North,352,9.0,-999.0,79,0.00,,,-99.99,,2013-01-12 06:22:00,
2013-01-11 22:33:00,40.0,34.0,-100.00,North,352,9.0,-999.0,79,0.00,,,-99.99,,2013-01-12 06:33:00,
2013-01-11 22:43:00,40.0,34.0,-100.00,North,352,9.0,-999.0,79,0.00,,,-99.99,,2013-01-12 06:43:00,
2013-01-11 22:52:00,40.0,34.0,-100.00,North,352,9.0,-999.0,79,0.00,,,-99.99,,2013-01-12 06:52:00,
2013-01-11 23:00:00,40.0,34.0,-100.00,North,5,13.0,-999.0,78,0.00,,,-99.99,,2013-01-12 07:00:00,
2013-01-11 23:22:00,40.0,34.0,-100.00,North,5,13.0,-999.0,78,0.00,,,-99.99,,2013-01-12 07:22:00,
2013-01-11 23:32:00,40.0,34.0,-100.00,North,5,13.0,-999.0,78,0.00,,,-99.99,,2013-01-12 07:32:00,
2013-01-11 23:42:00,40.0,34.0,-100.00,North,5,13.0,-999.0,78,0.00,,,-99.99,,2013-01-12 07:42:00,
2013-01-11 23:52:00,40.0,34.0,-100.00,North,5,13.0,-999.0,78,0.00,,,-99.99,,2013-01-12 07:52:00,